Location: Unspecified
(0.0000°N, 0.0000°E)
Time: 13:20:13
(UTC+00:00)

Vanguard 2 - Pass Details

Date: 23 September 2019
Orbit: 554 x 2937 km, 32.9° (Epoch: 13 October)

Event Time Altitude Azimuth Distance (km) Brightness Sun altitude
Rises 23:26:34 0° 246° (WSW) 6,425 12.3 -83.6°
Enters shadow 23:29:42 - 249° (WSW) 5,782 12.0 -84.3°
Reaches altitude 10° 23:30:42 10° 250° (WSW) 5,580 - -84.6°
Maximum altitude 23:47:56 58° 324° (NW) 3,224 - -88.9°
Drops below altitude 10° 00:03:16 10° 40° (NE) 4,992 - -87.2°
Sets 00:06:47 0° 45° (NE) 5,736 - -86.4°
